Temp
39 40 40 41 42 42 43 43 43 44 44 46 47 47 46 47 48 49 48 57 60 63 66 69 71 73 76 75 76 76 73 72 73 75 76 76 76 75 75 75 75 75 75
38 39 40 41 40 41 42 44 44 45 46 47 48 47 46 47 48 48 49 49 58 61 64 68 71 74 75 75 75 75 74 73 72 72 74 75 76 75 75 75 75 75 75
38 38 39 39 40 42 42 42 44 45 44 47 47 48 49 48 47 47 48 49 50 56 60 65 68 73 74 75 74 72 71 71 71 71 73 74 75 75 75 75 75 75 75
41 38 39 40 41 41 41 40 42 42 41 44 45 47 47 46 46 46 47 48 48 51 54 60 66 71 73 75 72 71 71 71 71 71 72 73 73 73 74 74 74 74 75
42 38 39 40 41 39 41 43 42 40 41 43 43 47 48 47 44 48 46 47 48 50 50 56 63 66 71 74 73 71 71 71 70 71 71 70 71 72 72 73 74 74 74
41 39 39 39 39 39 42 42 41 42 42 42 44 45 44 44 44 44 44 47 47 49 48 50 52 54 65 72 73 72 72 72 72 71 70 71 70 70 71 70 71 73 73
42 40 43 44 42 41 41 42 41 38 40 43 41 40 45 42 40 42 43 42 45 48 48 49 52 51 55 70 70 71 72 72 72 72 72 70 70 71 69 69 70 70 71
41 44 43 42 42 41 42 41 41 39 40 43 39 39 36 39 44 45 41 43 43 46 48 50 51 52 52 54 59 68 68 69 70 71 72 72 71 70 72 71 70 70 70
40 43 44 44 44 42 41 41 41 40 38 40 42 38 35 34 39 44 44 45 46 43 43 46 50 52 51 51 58 61 65 67 68 68 69 69 70 71 70 71 71 71 69
39 42 45 45 43 43 41 41 43 41 41 40 42 43 42 40 36 35 42 44 45 45 42 43 47 51 52 51 57 60 64 65 66 67 68 68 68 69 69 69 70 71 71
39 43 45 44 44 43 42 42 42 41 42 42 40 41 41 42 41 38 35 39 44 45 44 42 44 47 52 54 51 54 63 64 65 66 66 66 67 68 68 69 69 70 72
38 39 43 43 43 44 43 43 43 43 42 43 43 42 41 38 38 38 37 38 39 43 44 46 45 45 50 51 55 59 61 64 64 65 64 65 66 66 68 68 69 69 71
36 38 39 40 40 41 44 44 43 43 43 42 42 42 42 42 42 42 38 39 38 42 42 41 42 45 51 48 52 58 60 63 63 64 63 64 64 65 66 68 68 67 67
35 37 38 38 38 40 40 43 42 43 43 42 42 43 43 42 43 42 39 37 36 39 42 41 42 44 47 49 53 55 51 60 63 62 63 63 63 63 64 67 66 65 64
40 38 37 37 37 38 38 38 38 38 41 39 41 42 42 43 43 42 38 37 35 33 37 41 42 44 44 45 51 46 48 57 59 61 62 61 61 62 63 63 64 64 62
37 37 37 37 37 38 38 37 36 39 40 41 39 38 41 41 43 42 40 41 37 34 32 36 40 43 44 48 50 46 48 52 55 58 59 60 60 61 62 61 60 62 62
37 37 37 37 38 39 39 39 37 38 41 39 38 38 41 41 41 42 37 37 40 40 37 35 36 39 42 43 47 46 46 46 47 55 58 58 59 60 61 61 61 61 61
37 37 37 40 38 38 39 38 38 37 38 36 36 36 41 43 41 42 40 40 41 41 39 35 33 35 36 38 41 44 47 48 43 51 56 57 58 59 59 59 59 59 59
37 37 37 39 40 40 42 38 38 37 35 35 35 36 40 40 41 41 39 39 41 42 40 39 39 40 35 35 37 39 42 44 46 52 53 54 56 58 58 58 57 57 57
37 36 37 37 41 42 41 38 37 36 35 35 36 36 37 39 42 42 41 41 41 40 39 40 39 37 33 34 34 33 34 36 38 45 46 50 53 54 56 57 57 56 55
37 36 36 37 39 43 45 37 36 35 34 34 35 35 38 44 47 47 43 41 41 40 39 38 38 36 36 28 29 35 35 36 38 39 39 38 39 40 43 53 54 54 54
35 35 35 35 36 42 49 49 41 35 35 34 33 34 36 40 40 45 46 46 45 40 37 38 37 36 36 34 35 34 34 35 29 35 36 35 35 37 39 40 49 52 55
33 33 34 34 34 36 49 50 47 35 34 33 33 33 36 40 41 35 40 42 40 44 44 39 37 37 33 34 34 33 33 33 34 34 36 34 32 34 37 41 47 49 50
32 33 33 33 33 37 47 49 47 36 34 34 33 33 34 36 42 37 33 34 32 32 35 41 39 35 35 34 35 35 33 33 33 35 38 33 33 28 35 37 47 49 49
32 32 33 33 32 34 45 50 42 35 35 34 35 35 37 40 48 44 36 36 34 32 39 43 44 45 46 45 42 32 26 32 32 34 36 35 34 34 28 32 37 46 47
34 34 34 33 38 32 42 48 45 37 33 33 34 35 43 44 48 48 34 33 30 30 30 30 30 32 34 34 42 32 34 31 32 32 37 35 35 35 29 28 28 34 34
MSLP
1023.22 1022.76 1022.17 1021.62 1021.12 1020.58 1020.12 1019.60 1019.14 1018.73 1018.23 1017.61 1017.07 1016.62 1016.35 1016.01 1015.66 1015.20 1014.68 1014.08 1013.40 1012.78 1012.12 1011.44 1010.87 1010.23 1009.86 1010.03 1010.10 1010.14 1010.35 1010.58 1010.78 1010.81 1011.07 1011.30 1011.55 1011.99 1012.39 1012.74 1013.07 1013.49 1013.85
1023.11 1022.59 1022.06 1021.46 1020.93 1020.39 1019.97 1019.52 1018.99 1018.30 1017.74 1017.26 1016.68 1016.22 1015.96 1015.69 1015.38 1014.93 1014.47 1013.95 1013.20 1012.54 1011.85 1011.13 1010.33 1009.34 1009.40 1009.76 1009.89 1009.83 1009.90 1010.21 1010.61 1010.81 1010.85 1010.98 1011.09 1011.52 1011.91 1012.32 1012.79 1013.05 1013.54
1022.83 1022.46 1021.97 1021.39 1020.86 1020.25 1019.86 1019.45 1018.85 1018.19 1017.74 1017.01 1016.47 1015.84 1015.35 1015.09 1014.95 1014.52 1014.13 1013.71 1013.07 1012.47 1011.66 1010.84 1010.24 1009.04 1009.16 1009.35 1009.62 1009.91 1009.91 1010.27 1010.52 1010.64 1010.44 1010.55 1010.85 1011.19 1011.57 1011.93 1012.39 1012.69 1013.13
1022.50 1022.23 1021.81 1021.19 1020.52 1020.08 1019.67 1019.35 1018.83 1018.25 1017.66 1016.92 1016.24 1015.63 1015.05 1014.76 1014.32 1014.04 1013.72 1013.39 1012.75 1012.30 1011.56 1010.73 1010.14 1009.21 1008.95 1008.99 1009.61 1009.86 1010.10 1010.24 1010.47 1010.41 1010.15 1010.41 1010.70 1011.08 1011.36 1011.74 1012.06 1012.43 1012.81
1022.30 1021.99 1021.50 1020.85 1020.25 1019.90 1019.42 1018.91 1018.61 1018.27 1017.50 1016.63 1015.98 1015.29 1014.63 1014.13 1013.74 1013.37 1013.10 1012.78 1012.34 1011.92 1011.51 1010.76 1009.77 1009.65 1009.16 1008.99 1009.11 1009.75 1009.95 1010.26 1010.49 1010.60 1010.58 1010.73 1010.85 1011.02 1011.18 1011.53 1011.92 1012.19 1012.49
1022.12 1021.76 1021.20 1020.65 1020.09 1019.68 1019.03 1018.66 1018.33 1017.81 1017.36 1016.62 1015.73 1014.96 1014.37 1013.76 1013.24 1012.98 1012.73 1012.42 1012.18 1011.74 1011.27 1010.66 1010.10 1009.83 1009.44 1008.94 1008.81 1009.41 1009.70 1009.96 1010.31 1011.04 1010.60 1010.84 1011.04 1011.26 1011.32 1011.54 1011.84 1011.99 1012.27
1021.90 1021.46 1020.75 1019.98 1019.55 1019.23 1018.65 1018.29 1017.87 1017.64 1016.86 1016.22 1015.51 1014.75 1013.73 1013.06 1012.85 1012.41 1011.99 1011.82 1011.75 1011.25 1010.82 1010.39 1009.91 1009.74 1009.65 1009.19 1009.34 1009.36 1009.58 1009.84 1010.18 1010.42 1011.09 1010.61 1011.15 1011.36 1011.87 1011.86 1011.97 1012.14 1012.08
1021.86 1021.18 1020.43 1019.69 1019.02 1018.77 1018.21 1018.10 1017.74 1017.34 1016.69 1015.95 1015.49 1014.86 1013.88 1013.12 1012.60 1012.19 1011.72 1011.37 1011.26 1010.97 1010.53 1010.14 1009.83 1009.65 1009.65 1009.72 1009.64 1009.76 1010.23 1010.16 1010.50 1010.65 1010.83 1010.49 1011.34 1011.24 1011.68 1012.03 1011.94 1012.05 1012.07
1021.80 1021.11 1020.28 1019.49 1018.85 1018.60 1018.22 1017.89 1017.56 1017.11 1016.37 1015.81 1015.27 1015.04 1014.28 1013.75 1013.10 1012.51 1011.93 1011.65 1011.27 1010.96 1010.56 1010.34 1009.91 1009.77 1009.81 1009.95 1009.76 1010.02 1010.30 1010.53 1010.94 1011.21 1011.29 1011.15 1011.06 1011.28 1012.15 1011.79 1011.38 1012.13 1012.10
1021.81 1021.08 1020.22 1019.52 1019.07 1018.59 1018.17 1017.80 1017.17 1016.81 1016.12 1015.21 1014.78 1014.38 1014.27 1014.25 1013.67 1013.08 1012.42 1011.85 1011.61 1011.33 1010.88 1010.51 1010.26 1009.89 1009.89 1010.14 1010.06 1010.17 1010.62 1010.81 1011.10 1011.32 1011.40 1011.40 1011.74 1011.90 1011.65 1011.10 1011.54 1012.09 1011.92
1021.82 1021.08 1020.23 1019.64 1019.04 1018.62 1018.07 1017.51 1016.99 1016.51 1015.97 1015.31 1014.93 1014.45 1014.36 1014.16 1013.99 1013.60 1013.08 1012.74 1012.11 1011.75 1011.34 1010.88 1010.53 1010.27 1010.06 1010.18 1010.56 1010.54 1010.73 1011.00 1011.14 1011.28 1011.54 1011.70 1011.69 1011.23 1011.06 1011.49 1011.84 1011.73 1011.41
1022.07 1021.36 1020.61 1019.94 1019.39 1018.65 1018.05 1017.37 1016.92 1016.41 1015.81 1015.34 1014.99 1014.63 1014.46 1014.39 1014.23 1014.00 1013.64 1013.16 1012.94 1012.47 1012.10 1011.54 1011.17 1010.95 1010.54 1010.54 1010.67 1010.62 1010.80 1010.96 1010.96 1011.11 1011.50 1011.76 1011.71 1011.74 1011.65 1011.78 1011.43 1011.64 1011.20
1022.36 1021.73 1021.10 1020.39 1019.83 1019.04 1018.21 1017.60 1017.07 1016.56 1016.01 1015.56 1015.19 1014.83 1014.65 1014.51 1014.32 1014.09 1013.93 1013.50 1013.40 1013.11 1012.61 1012.31 1011.98 1011.83 1011.42 1011.33 1011.00 1010.81 1010.97 1010.57 1010.92 1011.18 1011.35 1011.62 1011.76 1011.63 1011.59 1011.62 1011.62 1011.39 1011.29
1022.65 1021.97 1021.35 1020.71 1020.15 1019.49 1018.74 1017.97 1017.49 1016.97 1016.42 1015.98 1015.51 1015.08 1014.71 1014.46 1014.30 1014.24 1014.24 1014.06 1013.78 1013.59 1013.19 1013.04 1012.75 1012.61 1012.31 1012.04 1011.54 1010.97 1011.09 1011.00 1011.08 1011.14 1011.42 1011.69 1011.72 1011.76 1011.63 1011.26 1011.17 1011.50 1011.80
1022.47 1022.00 1021.43 1020.89 1020.29 1019.77 1019.18 1018.55 1017.99 1017.49 1016.89 1016.47 1016.00 1015.45 1014.98 1014.66 1014.44 1014.38 1014.39 1014.24 1014.11 1014.06 1013.71 1013.40 1013.12 1012.86 1012.57 1012.21 1011.69 1011.72 1011.75 1011.60 1011.57 1011.47 1011.64 1011.81 1011.86 1011.83 1011.83 1011.68 1011.50 1011.75 1012.10
1022.64 1022.10 1021.51 1020.91 1020.33 1019.75 1019.30 1018.80 1018.21 1017.68 1017.20 1016.77 1016.33 1015.90 1015.27 1014.86 1014.47 1014.41 1014.40 1014.14 1014.17 1014.28 1014.27 1014.05 1013.71 1013.30 1012.80 1012.45 1012.19 1012.34 1012.34 1012.29 1012.18 1011.87 1011.89 1011.98 1011.96 1011.88 1012.05 1012.30 1012.31 1012.28 1012.47
1022.77 1022.29 1021.76 1021.14 1020.54 1019.95 1019.42 1018.96 1018.51 1018.10 1017.59 1017.17 1016.66 1016.14 1015.38 1014.94 1014.61 1014.36 1014.41 1014.31 1014.20 1014.24 1014.25 1014.29 1014.14 1013.70 1013.26 1012.89 1012.44 1012.59 1012.61 1012.39 1012.57 1012.46 1012.21 1011.99 1011.92 1012.03 1012.10 1012.35 1012.54 1012.61 1012.67
1022.78 1022.37 1021.87 1021.27 1020.64 1020.09 1019.58 1019.18 1018.80 1018.44 1018.08 1017.69 1017.07 1016.43 1015.73 1015.11 1014.72 1014.32 1014.12 1014.13 1014.09 1014.16 1014.34 1014.42 1014.38 1014.16 1013.96 1013.56 1013.25 1012.92 1012.67 1012.69 1013.02 1012.63 1012.28 1012.12 1011.76 1011.83 1012.01 1012.38 1012.59 1012.76 1013.14
1022.69 1022.31 1021.86 1021.53 1020.80 1020.23 1019.77 1019.32 1018.99 1018.66 1018.31 1017.94 1017.42 1016.90 1016.15 1015.49 1014.79 1014.33 1014.09 1013.88 1013.84 1013.94 1014.14 1014.21 1014.17 1014.12 1014.22 1014.08 1013.75 1013.32 1013.06 1012.67 1012.55 1012.57 1012.50 1012.38 1012.01 1011.77 1011.93 1012.24 1012.54 1012.75 1013.13
1022.82 1022.30 1021.90 1021.57 1021.05 1020.36 1019.90 1019.42 1019.12 1018.89 1018.57 1018.13 1017.62 1017.07 1016.50 1015.78 1015.07 1014.52 1014.30 1013.93 1013.80 1013.90 1014.01 1014.01 1014.12 1014.31 1014.47 1014.36 1014.29 1014.17 1013.84 1013.43 1013.22 1012.77 1012.77 1012.64 1012.19 1011.92 1011.87 1012.03 1012.18 1012.43 1012.76
1022.86 1022.64 1022.28 1021.60 1021.15 1020.32 1019.61 1019.35 1019.15 1018.97 1018.72 1018.39 1017.84 1017.33 1016.71 1015.99 1015.46 1014.81 1014.63 1014.44 1014.14 1013.89 1013.96 1014.03 1014.20 1014.40 1014.45 1014.75 1014.69 1014.67 1014.47 1014.17 1013.76 1013.47 1013.19 1012.99 1012.80 1012.49 1012.25 1011.89 1011.91 1012.25 1012.52
1023.22 1022.82 1022.32 1021.76 1021.15 1020.44 1019.35 1019.08 1019.12 1019.03 1018.79 1018.52 1018.15 1017.62 1017.03 1016.37 1016.01 1015.50 1015.00 1014.68 1014.27 1014.12 1014.15 1014.11 1014.28 1014.41 1014.61 1014.64 1014.77 1014.77 1014.50 1014.34 1014.33 1013.74 1013.67 1013.45 1013.13 1012.77 1012.57 1012.51 1012.18 1012.01 1011.88
1023.37 1023.04 1022.48 1021.77 1021.32 1020.54 1019.47 1018.88 1018.86 1018.89 1018.78 1018.53 1018.14 1017.70 1017.08 1016.43 1016.00 1015.90 1015.56 1015.30 1015.08 1014.61 1014.27 1014.47 1014.44 1014.46 1014.56 1014.53 1014.67 1014.63 1014.61 1014.58 1014.28 1013.91 1013.85 1013.60 1013.31 1012.96 1012.42 1012.32 1012.24 1012.05 1012.14
1023.56 1023.07 1022.44 1022.01 1021.54 1020.70 1019.77 1019.04 1019.14 1019.02 1018.81 1018.45 1018.10 1017.73 1017.20 1016.38 1015.82 1015.89 1015.84 1015.61 1015.47 1015.16 1014.89 1014.54 1014.42 1014.34 1014.24 1014.27 1014.45 1014.39 1014.42 1014.33 1014.09 1013.73 1013.60 1013.40 1013.24 1012.81 1012.18 1012.02 1011.74 1011.71 1011.84
1023.49 1023.04 1022.54 1022.19 1021.58 1020.80 1020.04 1019.16 1019.11 1018.96 1018.84 1018.47 1017.96 1017.47 1016.95 1016.41 1015.56 1015.64 1015.78 1015.83 1015.50 1015.31 1014.92 1014.60 1014.27 1013.99 1013.72 1013.76 1013.86 1014.39 1014.49 1014.33 1013.86 1013.42 1013.11 1013.05 1012.80 1012.88 1012.46 1012.01 1011.67 1011.49 1011.47
1023.32 1022.83 1022.60 1022.15 1021.53 1021.16 1020.32 1019.55 1019.01 1018.90 1018.89 1018.62 1018.06 1017.55 1016.98 1016.30 1015.84 1015.50 1015.71 1015.76 1015.74 1015.55 1015.28 1015.01 1014.78 1014.56 1014.51 1014.35 1013.93 1014.38 1014.59 1014.49 1014.21 1013.55 1012.91 1013.01 1012.72 1012.86 1012.68 1011.86 1011.61 1011.43 1011.33
Wind_Speed
5 5 5 5 6 6 6 7 6 7 9 9 10 7 8 9 8 6 4 19 18 19 20 22 21 24 19 16 16 17 14 15 14 16 18 16 19 19 17 16 15 15 16
4 5 6 6 6 5 5 7 8 8 8 9 10 9 7 8 9 9 7 7 19 20 19 19 21 22 16 16 16 15 14 14 13 15 17 17 17 19 18 17 18 16 16
5 6 6 6 6 5 7 7 9 8 8 8 10 10 8 8 8 9 8 6 8 17 19 17 18 17 17 15 10 7 9 8 7 9 16 15 16 17 17 18 17 18 18
7 5 6 6 7 5 6 5 7 8 8 7 8 9 8 7 8 8 7 7 6 7 12 18 14 15 15 17 11 7 4 4 4 7 5 12 14 15 16 16 17 17 17
8 5 6 7 7 5 5 6 7 7 10 8 9 8 9 8 6 8 9 9 9 7 6 13 15 13 14 17 15 10 8 5 1 5 7 7 9 11 13 15 15 18 18
8 6 6 7 6 6 7 6 7 7 9 9 9 10 9 8 7 7 8 8 7 7 6 6 5 5 11 13 10 14 9 5 6 7 4 6 7 9 8 5 8 14 18
9 8 7 8 7 7 9 6 7 7 8 8 7 6 6 8 5 6 6 5 6 7 6 5 4 3 4 9 7 4 10 7 4 3 7 4 11 5 7 10 8 7 7
9 10 10 10 9 7 7 8 6 5 6 6 4 7 4 4 1 4 4 3 5 5 5 5 5 4 3 1 3 5 3 4 4 5 5 5 10 8 10 9 8 13 6
9 10 11 10 9 5 6 5 6 8 8 6 7 3 3 2 4 4 6 5 5 3 4 4 4 2 2 2 4 5 6 3 1 3 6 9 12 3 12 12 8 13 11
9 9 11 10 8 6 6 6 6 7 8 8 6 4 5 3 2 4 4 6 6 6 5 4 4 2 2 1 2 7 5 5 3 4 7 7 9 9 9 11 14 14 12
8 10 11 10 9 6 7 7 9 8 7 6 4 3 2 1 2 2 2 4 4 5 4 4 4 4 4 0 2 2 8 7 6 4 4 7 10 13 11 13 12 18 14
6 8 10 9 8 8 9 8 7 8 8 5 4 4 2 2 2 2 2 2 4 3 3 7 9 7 5 3 3 7 9 11 10 8 4 4 9 12 14 15 14 17 17
4 8 8 9 8 9 9 8 8 9 9 5 5 3 2 2 2 3 2 2 2 2 3 3 5 7 7 5 4 2 8 10 8 7 4 3 7 10 13 15 14 10 7
5 5 7 7 7 8 9 9 7 7 8 7 10 8 3 2 1 1 2 2 1 1 2 3 2 5 6 6 10 16 7 10 4 5 3 3 6 9 12 11 4 3 9
5 7 7 7 7 6 7 7 6 7 7 6 7 8 5 5 2 2 1 0 1 2 3 3 4 4 4 5 11 7 6 14 11 4 3 1 3 6 9 3 8 11 11
6 7 8 7 7 6 6 6 5 6 7 6 6 7 6 4 3 2 2 1 1 1 2 1 2 3 4 4 8 7 6 9 12 11 6 4 2 2 1 5 3 6 9
6 7 7 7 7 8 7 5 6 7 8 8 8 8 8 6 4 3 2 1 1 1 1 3 1 3 5 5 6 4 5 6 5 11 9 6 5 4 3 3 5 7 8
6 6 6 9 7 7 7 6 6 6 7 7 8 8 9 6 7 5 2 2 1 1 1 1 2 2 2 3 4 5 3 1 3 8 10 10 8 7 6 6 6 7 7
6 6 6 7 9 8 7 6 5 6 6 5 6 7 9 8 9 5 4 4 1 1 2 2 2 0 1 2 3 3 3 4 2 6 9 11 10 9 8 9 9 9 8
6 7 6 6 8 9 5 5 5 6 6 6 6 6 7 8 10 5 7 6 3 3 1 2 0 1 1 2 2 2 4 4 4 3 6 9 11 10 10 12 13 11 10
6 6 7 8 6 7 4 1 5 5 6 6 6 6 6 9 16 13 3 3 4 2 2 2 1 1 0 2 1 2 2 4 4 2 4 3 4 4 5 9 10 12 12
6 6 7 6 8 8 11 10 6 5 5 5 6 6 6 9 8 13 13 12 6 1 3 2 2 2 2 0 1 3 1 2 3 1 1 4 2 3 3 3 6 8 13
5 6 6 6 7 8 20 11 10 3 4 5 6 6 7 5 5 3 8 9 10 12 6 2 3 2 2 2 1 1 1 2 3 3 1 4 1 3 2 3 6 6 8
5 4 5 6 6 7 17 11 12 5 5 6 6 6 6 8 7 2 4 5 5 5 5 3 2 4 3 3 3 2 2 3 3 5 4 5 1 4 3 4 10 9 11
4 4 4 6 6 7 17 14 6 4 5 6 6 6 6 8 13 7 5 6 4 4 5 9 10 8 8 2 2 2 3 3 3 3 1 2 2 2 2 4 5 11 12
3 4 5 5 8 6 13 16 10 3 5 4 6 6 13 11 12 11 2 1 3 4 5 6 5 6 7 5 7 3 2 3 3 3 1 3 1 1 4 3 2 3 3
Wind_Direction
321 316 307 310 303 300 306 307 299 301 295 296 290 277 282 286 284 282 278 296 302 300 290 283 267 258 239 245 255 246 233 225 244 239 230 220 210 209 204 206 198 192 191
303 299 305 297 296 292 301 318 307 301 294 293 299 284 271 280 282 281 276 285 299 303 298 287 277 252 231 241 253 250 243 231 233 258 239 225 212 205 206 205 203 194 195
302 300 303 298 290 295 299 310 306 309 297 293 298 298 278 281 278 276 275 278 287 301 303 297 293 262 231 235 244 259 254 232 268 260 246 226 219 213 210 207 203 200 197
301 291 290 292 286 297 306 300 308 315 300 300 297 292 284 265 269 272 277 274 277 290 302 306 296 277 246 231 208 187 150 123 13 347 288 231 227 224 220 215 207 204 202
294 287 283 285 286 291 290 293 309 301 303 296 290 289 286 276 257 273 277 273 272 278 288 301 304 287 276 233 192 193 179 182 142 352 10 347 271 232 225 223 220 213 209
302 292 288 285 294 296 289 297 294 294 293 296 299 289 284 269 264 266 257 260 262 268 280 285 294 276 291 250 246 195 181 179 179 227 310 339 338 298 228 186 221 226 224
319 318 308 309 307 296 289 302 291 292 304 302 293 289 284 267 275 268 250 233 254 263 282 280 283 261 278 246 271 212 214 185 205 226 223 203 312 311 308 279 235 234 246
316 323 318 307 296 293 300 307 314 302 296 303 299 293 305 320 327 352 350 279 266 269 299 298 298 239 228 203 141 130 75 56 4 328 334 305 211 282 289 273 275 259 272
321 325 326 339 343 309 326 310 309 300 305 294 267 267 299 307 333 338 342 356 9 0 321 321 329 233 162 191 127 108 116 105 25 324 333 336 331 281 265 263 262 267 238
326 327 341 342 341 336 326 317 306 295 295 303 314 226 241 298 328 326 334 339 353 6 353 346 338 6 152 139 180 151 169 178 221 296 304 311 308 295 312 320 270 250 253
328 324 352 349 350 334 314 301 303 308 300 309 347 0 323 287 324 298 330 347 337 351 351 356 352 0 25 320 222 222 199 212 201 212 285 312 310 313 311 301 283 272 241
324 329 339 346 345 341 341 333 317 305 309 325 335 336 10 329 346 328 309 338 331 313 342 24 29 8 352 22 262 240 232 215 200 195 210 298 311 298 290 285 291 277 271
330 336 337 340 341 336 342 341 351 356 356 349 341 326 346 356 308 331 321 31 19 319 331 12 25 20 12 11 17 300 261 226 198 188 198 269 299 298 284 272 275 290 264
311 309 325 328 332 340 351 353 351 357 4 355 5 342 321 321 297 351 318 349 16 343 341 333 15 25 16 3 31 45 36 35 196 188 221 288 312 309 308 257 239 173 83
331 334 328 326 332 336 340 351 355 351 354 352 358 347 356 357 5 355 294 352 102 12 30 346 3 16 356 11 24 28 17 34 20 311 244 153 346 339 326 62 124 117 111
332 333 335 336 331 329 340 354 338 350 358 357 350 344 351 332 358 328 346 325 111 124 351 23 332 329 338 3 17 18 13 30 18 10 349 233 248 322 338 228 149 127 125
333 335 332 333 339 338 331 337 353 358 10 5 354 350 358 348 328 358 352 310 319 280 264 299 286 331 338 346 359 10 3 13 358 358 353 331 234 239 235 170 159 146 138
331 329 333 349 337 333 329 333 344 0 2 354 348 349 355 358 347 315 276 275 277 238 268 294 300 328 345 336 327 322 344 40 357 337 335 343 297 231 214 189 173 171 175
321 332 341 350 327 326 328 345 353 355 352 350 339 343 348 356 349 356 332 288 246 212 239 231 295 203 333 3 334 334 329 326 315 327 334 324 336 270 224 197 187 185 192
323 322 326 334 340 337 324 346 359 354 352 349 343 341 336 0 9 31 14 23 16 315 322 293 37 36 62 315 6 356 345 358 328 347 335 319 317 325 279 220 209 194 189
326 325 328 333 340 323 304 16 5 343 346 340 336 340 333 18 17 18 34 5 11 359 338 326 296 219 252 344 64 325 303 307 298 290 327 316 327 331 327 277 228 211 210
348 348 345 329 332 337 345 33 35 355 340 337 330 332 333 351 11 8 31 16 11 50 38 18 17 3 339 16 347 315 351 327 312 230 299 299 344 315 316 338 334 301 241
349 352 344 344 336 329 344 22 20 357 336 327 324 329 328 320 347 347 9 24 12 5 53 63 319 296 259 219 180 301 256 256 278 295 143 274 286 279 266 279 298 315 307
351 332 333 339 339 325 340 17 17 352 338 321 316 315 310 307 312 172 21 23 352 330 332 328 262 258 232 225 226 204 236 264 276 274 209 273 250 264 275 261 271 283 286
344 330 314 341 329 321 339 2 30 350 334 322 314 320 319 321 349 101 48 10 348 323 338 351 324 315 303 264 304 73 327 317 293 285 255 274 194 280 270 258 253 263 277
318 333 341 336 327 321 329 344 11 338 329 328 328 334 342 338 4 358 98 258 320 304 334 348 345 344 349 317 317 150 253 279 297 284 258 259 265 215 304 273 291 281 282